logo
App data

Protoshift

Inspired by Super Hexagon, Protoshift is a twitch-based, fast-paced arcade game. ​Enjoy a phenomenal electronic soundtrack as you put your mouse skills to the test by attempting to complete impossible levels to compete on global leaderboards.
Store | Hub | SteamDB | Site
Developer: Reflextions Publisher: Zen Labs
Genre: Action, Indie
Languages: English
Tags: Action (31), Indie (30), Great Soundtrack (12), Mouse only (11), Minimalist (10)
Category: Single-player, Steam Achievements, Steam Trading Cards
Release date: Jan 15, 2016
Price: $0.99
Old userscore: 69% Owners: 0 .. 20,000
Followers: 130
Playtime in the last 2 weeks: 03:19 (average) 03:19 (median)
Playtime total: 04:25 (average) 04:06 (median)

Steam Spy is still in beta, so expect major bugs.

Owners data:

Access restricted.

This feature is only available to users with special access rights. Sorry.

If you want to proceed, you need to register or log in first and then back Steam Spy on Patreon. Look for Indie or Pro pledge.

Don't forget to use the same email as on Steam Spy!

Audience in 2 weeks:

Access restricted.

This feature is only available to users with special access rights. Sorry.

If you want to proceed, you need to register or log in first and then back Steam Spy on Patreon. Look for Indie or Pro pledge.

Don't forget to use the same email as on Steam Spy!

Peak daily concurrent players:

CCU data courtesy of SteamDB. Used with permission.

Hourly concurrent players:

Daily Twitch stats:

Hourly Twitch stats:

YouTube:

The views data is based on top 50 videos uploaded last week. Actual number of views might be more than the number shown.

The displayed number of videos uploaded yesterday is limited to 50, so if there were more videos uploaded, the number will still show 50.

If the game has commonly used word as its name (like "FEAR" or "Volume") its number of Youtube views might be wrong.

Games similar to this one:

# Game Release date
Price
Score rank
(Userscore / Metascore)
Owners
Players
Playtime (Median)
1 Little Big Adventure 2 Oct 20, 2015 $3.9999% (98%)0 .. 20,0000%00:00 (00:00)
2 Militia Dec 2, 2015 $5.9999% (98%)0 .. 20,0000%00:00 (00:00)
3 Seven Kingdoms: Ancient Adversaries Jun 8, 1998 $5.99N/A (N/A)0 .. 20,0000%00:00 (00:00)
4 Dungeon Warfare Nov 4, 2015 $4.4997% (97%)20,000 .. 50,0000%00:00 (00:00)
5 Imperium Galactica Jan 19, 2017 $4.99N/A (N/A)0 .. 20,0000%00:00 (00:00)
6 Defend The Highlands Nov 6, 2015 $9.9995% (96%)100,000 .. 200,0001.2%05:35 (05:35)
7 Voodoo Vince: Remastered Apr 17, 2017 $14.9995% (96%/63%)0 .. 20,0000%00:00 (00:00)
8 Templar Battleforce Sep 21, 2015 $9.9993% (95%)20,000 .. 50,0000%00:00 (00:00)
9 PixelJunk Shooter Nov 11, 2013 $8.9993% (95%/73%)100,000 .. 200,0000%00:00 (00:00)
10 Hegemony Gold: Wars of Ancient Greece Mar 30, 2012 $14.9993% (95%)20,000 .. 50,0000%00:00 (00:00)
11 Darknet Jun 8, 2017 $14.99N/A (N/A)0 .. 20,0000%00:00 (00:00)
12 Outcast 1.1 Dec 18, 2014 $5.9993% (95%)20,000 .. 50,0000%00:00 (00:00)
13 Majesty Gold HD Mar 23, 2001 $9.9990% (94%)100,000 .. 200,0000%00:00 (00:00)
14 Stick it to The Man! Dec 13, 2013 $7.9990% (94%/83%)20,000 .. 50,0000%00:00 (00:00)
15 Spider: Rite of the Shrouded Moon Aug 6, 2015 $9.9990% (94%)0 .. 20,0000%00:00 (00:00)
16 Star Trek: Judgment Rites May 8, 2015 $9.99N/A (N/A)0 .. 20,0000%00:00 (00:00)
17 Handsome Mr. Frog Aug 8, 2016 $0.9990% (94%)0 .. 20,0000%00:00 (00:00)
18 Neon Chrome Apr 28, 2016 $14.9990% (94%/74%)200,000 .. 500,0000.92%02:21 (01:27)
19 Kalimba Apr 22, 2015 $9.9990% (94%/81%)0 .. 20,0000%00:00 (00:00)
20 Audio Arena Jul 25, 2016 $6.99N/A (N/A)0 .. 20,0000%00:00 (00:00)
21 Gold Rush! Classic Dec 23, 1988 $2.9990% (94%)200,000 .. 500,0000%00:00 (00:00)
22 Run or Die Dec 11, 2014 $4.9990% (94%)0 .. 20,0000%00:00 (00:00)
23 Supercharged Robot VULKAISER Jun 4, 2015 $4.9990% (94%)20,000 .. 50,0000%00:00 (00:00)
24 RIVE: Wreck, Hack, Die, Retry! Sep 13, 2016 $14.9987% (93%)200,000 .. 500,0000%00:00 (00:00)
25 Tallowmere Mar 3, 2015 $3.9987% (93%)20,000 .. 50,0000%00:00 (00:00)
26 Eufloria HD Oct 14, 2014 $14.9987% (93%)200,000 .. 500,0000%00:00 (00:00)
27 Ys VI: The Ark of Napishtim Apr 28, 2015 $19.9987% (93%)50,000 .. 100,0000%00:00 (00:00)
28 Super Trench Attack! Jul 24, 2014 $4.9987% (93%)50,000 .. 100,0000.72%03:02 (01:00)
29 Adventure in the Tower of Flight Dec 23, 2015 $4.9987% (93%)0 .. 20,0000%00:00 (00:00)
30 Major Mayhem Feb 24, 2014 $4.9987% (93%)20,000 .. 50,0000%00:00 (00:00)
31 Kick Ass Commandos Nov 17, 2016 $9.9987% (93%)0 .. 20,0000%00:00 (00:00)
32 Bleed Jul 3, 2013 $4.9987% (93%)100,000 .. 200,0000%00:00 (00:00)
33 Battle Academy 2: Eastern Front Sep 12, 2014 $39.9983% (92%/78%)0 .. 20,0000%00:00 (00:00)
34 Ittle Dew Jul 23, 2013 $9.9983% (92%/67%)100,000 .. 200,0000.7%04:47 (01:35)
35 Knightmare Tower Jun 16, 2014 $3.9983% (92%)0 .. 20,0000%00:00 (00:00)
36 Anarcute Jul 12, 2016 $14.9983% (92%/79%)0 .. 20,0006.67%00:01 (00:00)
37 The Juicer Sep 6, 2012 $0.9983% (92%)20,000 .. 50,0000.76%05:09 (01:43)
38 Shmups Skill Test シューティング技能検定 Jun 9, 2016 $4.99N/A (N/A)0 .. 20,0000%00:00 (00:00)
39 Mad Bullets Jun 10, 2016 $1.9983% (92%)0 .. 20,0000%00:00 (00:00)
40 Death Ray Manta SE Sep 17, 2015 $1.9983% (92%)20,000 .. 50,0000%00:00 (00:00)
41 Super Cyborg Jul 8, 2015 $4.9983% (92%)20,000 .. 50,0001.27%03:37 (01:12)
42 Pharaoh Rebirth+ Mar 17, 2016 $9.9983% (92%)0 .. 20,0000%00:00 (00:00)
43 Wars and Warriors: Joan of Arc Feb 7, 2004 $6.9983% (92%/60%)0 .. 20,0000%00:00 (00:00)
44 Below Kryll Sep 7, 2015 $4.9983% (92%)0 .. 20,0000%00:00 (00:00)
45 Miracle Fly Oct 26, 2015 $7.9979% (91%)20,000 .. 50,0000%00:00 (00:00)
46 Clash of Puppets Dec 16, 2014 $4.9979% (91%)0 .. 20,0000%00:00 (00:00)
47 Momodora III Jul 1, 2014 $1.9979% (91%)50,000 .. 100,0000%00:00 (00:00)
48 Armed with Wings: Rearmed Jun 1, 2017 $9.9979% (91%)20,000 .. 50,0000%00:00 (00:00)
49 Swords and Soldiers HD Dec 2, 2010 $9.9979% (91%)200,000 .. 500,0000%00:00 (00:00)
50 Flashpoint Campaigns: Red Storm Player's Edition Oct 9, 2013 $49.9979% (91%)0 .. 20,0000%00:00 (00:00)
51 Explosionade Sep 23, 2015 $3.99N/A (N/A)0 .. 20,0000%00:00 (00:00)
52 Skulls of the Shogun Jul 29, 2013 $9.9979% (91%/72%)100,000 .. 200,0000%00:00 (00:00)
53 Near Death Aug 2, 2016 $7.4979% (91%/70%)0 .. 20,0000%00:00 (00:00)
54 Dandy: Or a Brief Glimpse Into the Life of the Candy Alchemist Aug 4, 2015 $9.99N/A (N/A)0 .. 20,0000%00:00 (00:00)
55 Earth Defense Force: Insect Armageddon Dec 14, 2011 $9.9979% (91%/69%)50,000 .. 100,0000%00:00 (00:00)
56 Demons with Shotguns Apr 25, 2016 $9.99N/A (N/A)0 .. 20,0000%00:00 (00:00)
57 Warrior Kings: Battles Sep 30, 2003 $9.9979% (91%/64%)20,000 .. 50,0000%00:00 (00:00)
58 Blue Estate The Game Apr 8, 2015 $12.9979% (91%/59%)50,000 .. 100,0000%00:00 (00:00)
59 Valley Aug 24, 2016 $19.9979% (91%)100,000 .. 200,0002.27%00:05 (00:03)
60 Angry Video Game Nerd II: ASSimilation Mar 29, 2016 $9.9979% (91%)20,000 .. 50,0000%00:00 (00:00)
61 Khet 2.0 Oct 1, 2014 $9.9979% (91%)50,000 .. 100,0000%00:00 (00:00)
62 Planet of the Eyes Aug 24, 2015 $9.9976% (90%/66%)50,000 .. 100,0000%00:00 (00:00)
63 Death's Hangover Jan 20, 2017 $4.9976% (90%)20,000 .. 50,0004.48%03:12 (02:16)
64 Lethe - Episode One Aug 1, 2016 $14.9976% (90%)0 .. 20,0003.13%00:01 (00:00)
65 Silent Storm Gold Edition Sep 9, 2004 $9.9976% (90%/83%)200,000 .. 500,0001.22%16:13 (05:24)
66 Ace of Seafood Apr 8, 2016 $11.9976% (90%)0 .. 20,00025%03:25 (01:42)
67 Fort Meow Jun 25, 2015 $2.7176% (90%)0 .. 20,0000%00:00 (00:00)
68 Weird Hero Nov 18, 2016 $2.9976% (90%)0 .. 20,0000%00:00 (00:00)
69 Apocalypse: Party's Over May 30, 2016 $4.9976% (90%)0 .. 20,0004.76%00:03 (00:01)
70 Kohan: Ahriman's Gift Nov 6, 2001 $9.99N/A (N/A/79%)0 .. 20,0000%00:00 (00:00)
71 Kohan II: Kings of War Sep 21, 2004 $9.9976% (90%/81%)20,000 .. 50,0000%00:00 (00:00)
72 Superstatic Sep 15, 2015 $4.99N/A (N/A)0 .. 20,0000%00:00 (00:00)
73 Headlander Jul 25, 2016 $19.9976% (90%/74%)100,000 .. 200,0000%00:00 (00:00)
74 Amaranthine Apr 6, 2016 $0.8973% (89%)0 .. 20,0000%00:00 (00:00)
75 Codename: Panzers, Phase Two Jul 21, 2005 $14.9973% (89%/80%)20,000 .. 50,0000%00:00 (00:00)
76 Warhammer 40,000: Dawn of War – Winter Assault Jan 1, 2006 $12.9973% (89%)500,000 .. 1,000,0000.68%00:31 (00:20)
77 MoonBase Commander Aug 13, 2002 $5.9973% (89%/77%)20,000 .. 50,0000%00:00 (00:00)
78 Reverse Crawl Sep 24, 2015 $5.9973% (89%)20,000 .. 50,0001.23%01:02 (00:20)
79 CastleStorm Jul 29, 2013 $9.9973% (89%/73%)100,000 .. 200,0000%00:00 (00:00)
80 Zombo Buster Rising Oct 2, 2016 $1.9973% (89%)0 .. 20,0000%00:00 (00:00)
81 Sneaky Sneaky Nov 12, 2014 $4.9973% (89%/63%)0 .. 20,0000%00:00 (00:00)
82 Avoid - Sensory Overload Apr 8, 2014 $4.9970% (88%)0 .. 20,0000%00:00 (00:00)
83 Greed Corp Dec 10, 2010 $9.9970% (88%/76%)200,000 .. 500,0000%00:00 (00:00)
84 Blacksea Odyssey Jun 1, 2016 $9.9970% (88%/74%)0 .. 20,0000%00:00 (00:00)
85 The Way May 20, 2016 $14.9970% (88%/67%)20,000 .. 50,0003.64%01:28 (00:50)
86 Super Furball May 13, 2014 $3.99N/A (N/A)0 .. 20,0000%00:00 (00:00)
87 Viking Squad Oct 4, 2016 $14.9970% (88%)0 .. 20,0000%00:00 (00:00)
88 Atom Zombie Smasher Mar 14, 2011 $9.9970% (88%/75%)200,000 .. 500,0000%00:00 (00:00)
89 Tcheco in the Castle of Lucio Jun 22, 2015 $0.9970% (88%)50,000 .. 100,0000.5%03:43 (01:14)
90 Earn to Die 2 May 5, 2016 $4.9970% (88%)0 .. 20,0008.33%07:26 (02:28)
91 Anodyne Mar 22, 2013 $9.9970% (88%/75%)100,000 .. 200,0000.79%00:32 (00:10)
92 Battlepillars Gold Edition Apr 28, 2014 $4.9970% (88%)20,000 .. 50,0000%00:00 (00:00)
93 The Fall May 30, 2014 $6.9970% (88%/76%)200,000 .. 500,0002.49%02:25 (02:44)
94 Syrian Warfare Feb 21, 2017 $14.9970% (88%)20,000 .. 50,0006.06%03:49 (02:32)
95 Bullet Sorrow VR Apr 17, 2017 $19.9968% (87%)0 .. 20,0000%00:00 (00:00)
96 Mr. Shifty Apr 13, 2017 $14.9968% (87%)50,000 .. 100,0000.4%02:33 (00:51)
97 Supreme Commander Feb 20, 2007 $14.9968% (87%/86%)500,000 .. 1,000,0000.29%00:20 (00:06)
98 The Tiny Tale 2 Jan 30, 2015 $6.99N/A (N/A)0 .. 20,0000%00:00 (00:00)
99 TRON 2.0 Aug 22, 2003 $9.9968% (87%/84%)50,000 .. 100,0000%00:00 (00:00)
100 Civilization IV: Warlords Jul 24, 2006 $4.9968% (87%/84%)1,000,000 .. 2,000,0000.25%00:02 (00:00)
101 Interloper May 21, 2015 $168% (87%/77%)50,000 .. 100,0000.4%05:34 (01:51)
102 Sang-Froid - Tales of Werewolves Apr 5, 2013 Free68% (87%/79%)200,000 .. 500,0000.6%01:30 (01:00)
103 Shadow Blade: Reload Aug 10, 2015 $14.9968% (87%/70%)20,000 .. 50,0001.2%01:38 (00:32)
104 Spooky Cats Jun 4, 2015 $2.9968% (87%)20,000 .. 50,0000%00:00 (00:00)
105 The Haunted: Hells Reach Oct 24, 2011 $8.9965% (86%/51%)50,000 .. 100,0000%00:00 (00:00)
106 N2O: Nitrous Oxide Jun 29, 2015 $4.99N/A (N/A)0 .. 20,0000%00:00 (00:00)
107 Executive Assault Jul 17, 2015 $12.9965% (86%)20,000 .. 50,0000%00:00 (00:00)
108 Arcane Sorcery Sep 15, 2015 $0.74N/A (N/A)0 .. 20,0000%00:00 (00:00)
109 Super Chibi Knight Jun 24, 2015 $4.9965% (86%)20,000 .. 50,0000%00:00 (00:00)
110 Meltdown Jun 5, 2014 $6.9965% (86%)50,000 .. 100,0000%00:00 (00:00)
111 Neon Shadow Aug 25, 2016 $4.99N/A (N/A)0 .. 20,0000%00:00 (00:00)
112 Rush for Berlin Gold Oct 29, 2009 $4.9965% (86%/76%)20,000 .. 50,0000%00:00 (00:00)
113 Time Rifters Oct 21, 2014 $9.9965% (86%)0 .. 20,0000%00:00 (00:00)
114 Star Ruler Sep 20, 2010 $9.9965% (86%)100,000 .. 200,0000%00:00 (00:00)
115 Ghost Master Aug 23, 2003 $0.9965% (86%/81%)100,000 .. 200,0000%00:00 (00:00)
116 Western 1849 Reloaded Feb 10, 2017 $4.9965% (86%)0 .. 20,0000%00:00 (00:00)
117 VelocityUltra Dec 12, 2013 $9.9965% (86%)50,000 .. 100,0000%00:00 (00:00)
118 Age of Wonders Shadow Magic Oct 2010 $9.9965% (86%/82%)100,000 .. 200,0000%00:00 (00:00)
119 ENSLAVED: Odyssey to the West Premium Edition Oct 24, 2013 $19.9962% (85%/70%)200,000 .. 500,0000%00:00 (00:00)
120 NOBUNAGA'S AMBITION: Souzou (Traditional Chinese version) Aug 2014 $24.9962% (85%)20,000 .. 50,0000%00:00 (00:00)
121 Slash or Die Jun 3, 2016 $2.9962% (85%)50,000 .. 100,0002.4%03:34 (04:14)
122 Steel Rain Dec 3, 2015 $9.9962% (85%)0 .. 20,0000%00:00 (00:00)
123 Concealed Intent Aug 2, 2016 $14.99N/A (N/A)0 .. 20,0000%00:00 (00:00)
124 ShootMania Storm Apr 10, 2013 $19.9962% (85%/76%)50,000 .. 100,0000%00:00 (00:00)
125 CRYPTARK Jun 20, 2017 $14.9962% (85%/80%)50,000 .. 100,0000%00:00 (00:00)
126 Dustoff Heli Rescue Mar 6, 2015 $3.9962% (85%)20,000 .. 50,0000%00:00 (00:00)
127 Magnifico Dec 2, 2014 $4.9962% (85%)50,000 .. 100,0000%00:00 (00:00)
128 Gurgamoth Feb 16, 2016 $4.9960% (84%)50,000 .. 100,0000%00:00 (00:00)
129 The Men of Yoshiwara: Kikuya Oct 15, 2015 $29.9960% (84%)0 .. 20,0000%00:00 (00:00)
130 Last Knight: Rogue Rider Edition Oct 3, 2014 $7.9960% (84%)20,000 .. 50,0000%00:00 (00:00)
131 Act of War: Direct Action Mar 14, 2005 $2.9960% (84%/82%)20,000 .. 50,0000%00:00 (00:00)
132 Child Of Ault Jan 24, 2017 $9.99N/A (N/A)0 .. 20,0004.55%00:16 (00:05)
133 Foresight Nov 28, 2014 $4.99N/A (N/A)0 .. 20,0000%00:00 (00:00)
134 Conflict Desert Storm Sep 13, 2002 $6.9960% (84%/56%)20,000 .. 50,0000%00:00 (00:00)
135 Bulletstorm: Full Clip Edition Apr 7, 2017 $39.9960% (84%/76%)20,000 .. 50,0000%00:00 (00:00)
136 Battle Group 2 Jun 13, 2014 $7.9960% (84%)50,000 .. 100,0000%00:00 (00:00)
137 Rooks Keep Dec 5, 2014 $7.9960% (84%)20,000 .. 50,0000%00:00 (00:00)
138 Eador: Genesis Aug 7, 2009 $5.9960% (84%)50,000 .. 100,0000%00:00 (00:00)
139 Sudden Strike 2 Gold May 22, 2017 $5.9960% (84%)20,000 .. 50,0000%00:00 (00:00)
140 Ballistic Tanks Sep 20, 2016 $4.9960% (84%)0 .. 20,0000%00:00 (00:00)
141 Advanced Tactics Gold Apr 12, 2011 $29.9960% (84%)0 .. 20,0000%00:00 (00:00)
142 Fat Chicken Dec 4, 2014 $9.99N/A (N/A)0 .. 20,0000%00:00 (00:00)
143 Galaxy Admirals Jan 17, 2017 $1.9957% (83%)50,000 .. 100,0000%00:00 (00:00)
144 Crush Your Enemies Jul 13, 2016 $9.9957% (83%/63%)20,000 .. 50,0000%00:00 (00:00)
145 Disciples Sacred Lands Gold Oct 4, 1999 $7.9957% (83%)50,000 .. 100,0000%00:00 (00:00)
146 Legend (1994) Apr 1, 1994 $4.99N/A (N/A)0 .. 20,0000%00:00 (00:00)
147 Delta Force 2 Oct 31, 1999 $4.9957% (83%)50,000 .. 100,0000%00:00 (00:00)
148 Orbital Gear Aug 7, 2014 $0.9957% (83%/59%)200,000 .. 500,0000%00:00 (00:00)
149 TY the Tasmanian Tiger 4 Sep 17, 2015 $5.9957% (83%)0 .. 20,0000%00:00 (00:00)
150 NOBUNAGA'S AMBITION: Sphere of Influence Sep 1, 2015 $59.9957% (83%/70%)20,000 .. 50,0000%00:00 (00:00)
151 Rack N Ruin Sep 1, 2015 $9.9957% (83%)0 .. 20,0000%00:00 (00:00)
152 Ace of Protectors Jun 27, 2016 $1.99N/A (N/A)0 .. 20,0000%00:00 (00:00)
153 GIBZ Apr 7, 2017 $7.9957% (83%)0 .. 20,0000%00:00 (00:00)
154 Defense Zone Jul 14, 2014 $2.99N/A (N/A)0 .. 20,0000%00:00 (00:00)
155 Fleet Command May 15, 1999 $9.9955% (82%)20,000 .. 50,0000%00:00 (00:00)
156 Shadow Ops: Red Mercury Sep 17, 2004 $6.9955% (82%/61%)20,000 .. 50,0000%00:00 (00:00)
157 htoL#NiQ: The Firefly Diary / htoL#NiQ-ホタルノニッキ- May 18, 2016 $9.9955% (82%)0 .. 20,0000%00:00 (00:00)
158 Blade Arcus from Shining: Battle Arena Jul 28, 2016 $29.9955% (82%)0 .. 20,0000%00:00 (00:00)
159 After The End: The Harvest Jun 2, 2017 $4.9955% (82%)20,000 .. 50,0000%00:00 (00:00)
160 rymdkapsel Jan 30, 2014 $7.9952% (81%/77%)0 .. 20,0000%00:00 (00:00)
161 Jim Power -The Lost Dimension Dec 10, 1993 $4.99N/A (N/A)0 .. 20,0000%00:00 (00:00)
162 Junk Jack Nov 30, 2016 $14.9952% (81%)0 .. 20,0000%00:00 (00:00)
163 Defense Zone 3 Ultra HD Dec 14, 2016 $2.9952% (81%)0 .. 20,0000%00:00 (00:00)
164 In Verbis Virtus Apr 3, 2015 $19.9952% (81%)50,000 .. 100,0000%00:00 (00:00)
165 PixelJunk Shooter Ultimate Oct 21, 2015 $9.9952% (81%)0 .. 20,0000%00:00 (00:00)
166 She Wants Me Dead May 13, 2016 $7.9952% (81%)0 .. 20,0000%00:00 (00:00)
167 Age of Wonders Oct 2010 $5.9952% (81%)100,000 .. 200,0000%00:00 (00:00)
168 Enemy Mind Jun 6, 2014 $9.9952% (81%)200,000 .. 500,0000%00:00 (00:00)
169 Toadled Sep 22, 2016 $0.4952% (81%)50,000 .. 100,0000%00:00 (00:00)
170 Square Brawl Oct 22, 2015 $4.9952% (81%)0 .. 20,0000%00:00 (00:00)
171 Umihara Kawase Shun: Steam Edition Nov 24, 2015 $11.99N/A (N/A)0 .. 20,0000%00:00 (00:00)
172 Anomaly 2 May 15, 2013 $14.9950% (80%/77%)200,000 .. 500,0000%00:00 (00:00)
173 Zeno Clash 2 Apr 30, 2013 $14.9950% (80%)200,000 .. 500,0000%00:00 (00:00)
174 Monday Night Combat Jan 24, 2011 $4.9950% (80%/82%)200,000 .. 500,0000%00:00 (00:00)
175 ROD: Revolt Of Defense Aug 12, 2016 $0.9950% (80%)20,000 .. 50,0000%00:00 (00:00)
176 Tiki Man Jun 4, 2015 $0.9950% (80%)20,000 .. 50,0001.06%00:01 (00:00)
177 Trigger Runners Mar 3, 2016 $1.99N/A (N/A)0 .. 20,0000%00:00 (00:00)
178 Weapon of Choice Sep 23, 2015 $4.99N/A (N/A)0 .. 20,0000%00:00 (00:00)
179 Blue Effect VR Feb 8, 2017 $14.9950% (80%)0 .. 20,0000%00:00 (00:00)
180 Interplanetary May 12, 2015 N/A50% (80%)100,000 .. 200,0000%00:00 (00:00)
181 Ninjahtic Jul 6, 2015 $1.9950% (80%)0 .. 20,0000%00:00 (00:00)
182 Legends of Callasia Jun 10, 2016 $14.9950% (80%)50,000 .. 100,0000%00:00 (00:00)
183 Perimeter May 21, 2004 $3.9950% (80%/77%)20,000 .. 50,0000%00:00 (00:00)
184 Graviteam Tactics: Operation Star Mar 22, 2012 $29.9950% (80%)20,000 .. 50,0007.14%00:11 (00:03)
185 Anomaly Warzone Earth Mobile Campaign Nov 6, 2013 $4.9950% (80%)100,000 .. 200,0000%00:00 (00:00)
186 Fate of the World Feb 28, 2011 $9.9950% (80%/70%)50,000 .. 100,0000%00:00 (00:00)
187 Gun Metal Sep 23, 2003 $2.9950% (80%)200,000 .. 500,0000.43%01:15 (00:49)
188 Dominions 3: The Awakening Sep 10, 2013 $19.9950% (80%/82%)0 .. 20,0000%00:00 (00:00)
189 Conquest of Elysium 3 Oct 24, 2012 $4.9950% (80%)20,000 .. 50,0000%00:00 (00:00)
190 Run Rabbit Run Mar 31, 2016 $3.9950% (80%)0 .. 20,0000%00:00 (00:00)
191 Bloodsports.TV Mar 30, 2015 $9.9950% (80%/69%)50,000 .. 100,0000%00:00 (00:00)
192 7,62 High Calibre Aug 24, 2007 $4.9950% (80%)50,000 .. 100,0000%00:00 (00:00)
193 Demolition Inc. Sep 19, 2011 $5.9950% (80%)50,000 .. 100,0000%00:00 (00:00)
194 Age of Gladiators Feb 25, 2016 $9.9950% (80%)20,000 .. 50,0000%00:00 (00:00)
195 Supreme Ruler 2020 Gold Jun 17, 2008 $9.9950% (80%/65%)50,000 .. 100,0000%00:00 (00:00)
196 Making History: The Calm & the Storm Mar 13, 2007 $4.9950% (80%/70%)50,000 .. 100,0000%00:00 (00:00)
197 Gatling Gears Aug 30, 2011 $9.9950% (80%)20,000 .. 50,0000%00:00 (00:00)
198 Caster Mar 19, 2009 $1.9948% (79%)200,000 .. 500,0000.28%333:20 (111:06)
199 Cultures - 8th Wonder of the World Mar 26, 2015 $4.9948% (79%)50,000 .. 100,0000%00:00 (00:00)
200 Star Wolves 3: Civil War Mar 2, 2010 $4.9948% (79%)100,000 .. 200,0000.73%00:30 (00:10)
201 Advent Rising Aug 9, 2005 $9.9948% (79%/70%)20,000 .. 50,0000%00:00 (00:00)
202 TRON RUN/r Feb 16, 2016 $19.9948% (79%)0 .. 20,0000%00:00 (00:00)
203 Fantasy Wars Aug 6, 2010 $4.9948% (79%/67%)50,000 .. 100,0000%00:00 (00:00)
204 Vietnam ‘65 Mar 5, 2015 $9.9948% (79%/81%)20,000 .. 50,0000%00:00 (00:00)
205 Locoland Nov 22, 2003 $4.9948% (79%)0 .. 20,0000%00:00 (00:00)
206 TASTEE: Lethal Tactics May 10, 2016 $14.9948% (79%)20,000 .. 50,0003.45%06:04 (04:02)
207 David. Mar 14, 2014 $1.9948% (79%)50,000 .. 100,0000%00:00 (00:00)
208 Zombie Party Jun 10, 2016 $9.9948% (79%)100,000 .. 200,0000%00:00 (00:00)
209 Fortified Feb 3, 2016 $14.9948% (79%)0 .. 20,0000%00:00 (00:00)
210 Nuclear Dawn Sep 26, 2011 $9.9948% (79%/71%)200,000 .. 500,0000%00:00 (00:00)
211 Deadly 30 Jan 8, 2014 $4.9946% (78%)100,000 .. 200,0004.31%04:40 (04:46)
212 Star Realms Mar 8, 2016 Free46% (78%)100,000 .. 200,0000%00:00 (00:00)
213 Vector Strain Dec 9, 2015 $4.99N/A (N/A)20,000 .. 50,0000%00:00 (00:00)
214 Dead Rising 2: Off the Record Oct 11, 2011 $19.9946% (78%/66%)200,000 .. 500,0000.85%00:55 (00:55)
215 Starscape Mar 27, 2003 $7.9946% (78%)20,000 .. 50,0000%00:00 (00:00)
216 Battle Mages: Sign of Darkness Apr 13, 2006 $4.9946% (78%)20,000 .. 50,0000%00:00 (00:00)
217 Tank Destroyer Mar 9, 2017 $2.9946% (78%)20,000 .. 50,0002%01:43 (00:34)
218 Curse of the Crescent Isle DX Aug 21, 2015 $4.9946% (78%)0 .. 20,0005.88%00:31 (00:10)
219 Aeon Command Jul 3, 2014 $2.9946% (78%)20,000 .. 50,0000%00:00 (00:00)
220 Pharaonic Apr 28, 2016 $9.7446% (78%)20,000 .. 50,0000%00:00 (00:00)
221 The Legend of Dark Witch Dec 1, 2015 $4.9946% (78%)20,000 .. 50,0000%00:00 (00:00)
222 Mold on Pizza Sep 25, 2015 $4.1946% (78%)0 .. 20,0000%00:00 (00:00)
223 Making History II: The War of the World Jun 22, 2010 $14.9946% (78%/38%)20,000 .. 50,0000%00:00 (00:00)
224 Battlezone Gold Edition May 11, 2017 $34.9946% (78%)0 .. 20,0000%00:00 (00:00)
225 Envoy Mar 17, 2016 $0.4946% (78%)50,000 .. 100,0000%00:00 (00:00)
226 PAC-MAN and the Ghostly Adventures Oct 29, 2013 $19.9946% (78%)0 .. 20,0000%00:00 (00:00)
227 Strike Suit Zero: Director's Cut Apr 8, 2014 $19.9946% (78%)20,000 .. 50,0000%00:00 (00:00)
228 Zombie Killtime Aug 4, 2015 $1.99N/A (N/A)0 .. 20,0000%00:00 (00:00)
229 Dangerous Waters Feb 7, 2006 $14.9946% (78%/82%)50,000 .. 100,0000%00:00 (00:00)
230 A Blind Legend Apr 7, 2016 $6.9944% (77%)0 .. 20,0006.9%04:36 (03:04)
231 Olympia Rising Jul 23, 2015 $4.9944% (77%)0 .. 20,0000%00:00 (00:00)
232 Mysterium: A Psychic Clue Game Jan 12, 2017 $9.9944% (77%)50,000 .. 100,0000.66%00:57 (00:19)
233 Riddled Corpses Jun 2, 2015 $7.9944% (77%)20,000 .. 50,0000%00:00 (00:00)
234 A.R.E.S. Extinction Agenda EX Oct 3, 2014 $9.9944% (77%)0 .. 20,0000%00:00 (00:00)
235 Bet On Soldier Sep 26, 2005 $7.9944% (77%)50,000 .. 100,0000%00:00 (00:00)
236 McDROID Sep 5, 2014 $9.9944% (77%)0 .. 20,0000%00:00 (00:00)
237 Warlords Battlecry III May 17, 2004 $5.9944% (77%/73%)0 .. 20,00014.29%00:02 (00:00)
238 King of Dragon Pass Jul 28, 2015 $11.9944% (77%)20,000 .. 50,0000.93%00:01 (00:00)
239 Painkiller Hell & Damnation Oct 31, 2012 $19.9944% (77%/64%)500,000 .. 1,000,0000.71%00:50 (00:28)
240 The Political Machine 2016 Feb 4, 2016 $9.9944% (77%)50,000 .. 100,0001.2%00:03 (00:01)
241 Warhammer 40,000: Armageddon Nov 26, 2014 $39.9944% (77%/68%)20,000 .. 50,0000%00:00 (00:00)
242 Velocity 2X Aug 19, 2015 $19.9942% (76%)50,000 .. 100,0000%00:00 (00:00)
243 Rocket Knight May 11, 2010 $14.9942% (76%/63%)0 .. 20,0000%00:00 (00:00)
244 Cashtronauts Sep 1, 2016 $2.9942% (76%)0 .. 20,0000%00:00 (00:00)
245 Master Reboot Oct 29, 2013 $14.9942% (76%/59%)50,000 .. 100,0000%00:00 (00:00)
246 Heroes of Arca Feb 16, 2017 Free42% (76%)0 .. 20,0000%00:00 (00:00)
247 Star Hammer: The Vanguard Prophecy Jun 4, 2015 $19.9942% (76%/69%)0 .. 20,00025%01:29 (00:29)
248 Battle Time Sep 29, 2016 $0.9942% (76%)20,000 .. 50,0000%00:00 (00:00)
249 Fist Puncher Jun 21, 2013 $9.9942% (76%/73%)20,000 .. 50,0002.22%00:26 (00:08)
250 BloodRayne Sep 9, 2003 $9.9942% (76%/65%)50,000 .. 100,0000%00:00 (00:00)
251 Extravaganza Rising Jul 21, 2016 $5.99N/A (N/A)20,000 .. 50,0000%00:00 (00:00)
252 Z Jul 4, 2014 $6.9942% (76%)100,000 .. 200,0001.34%05:59 (05:58)
253 Chaser Aug 22, 2003 $4.9942% (76%/66%)100,000 .. 200,0000%00:00 (00:00)
254 Deadlings: Rotten Edition Nov 11, 2014 $3.9942% (76%)50,000 .. 100,0000%00:00 (00:00)
255 Monster Monpiece Mar 14, 2017 $19.9942% (76%)20,000 .. 50,0009.09%168:24 (111:32)
256 WARSHIFT Oct 12, 2016 $12.9942% (76%)20,000 .. 50,0000%00:00 (00:00)
257 Livelock Aug 30, 2016 $9.9942% (76%/73%)20,000 .. 50,0004.44%01:29 (00:59)
258 Starchaser: Priestess of the Night Sky Jul 24, 2015 $9.99N/A (N/A)0 .. 20,0000%00:00 (00:00)
259 Heroes of Might & Magic V: Hammers of Fate Nov 14, 2006 $9.9942% (76%/66%)200,000 .. 500,0000%00:00 (00:00)
260 Rocketbirds 2 Evolution Jan 26, 2017 $9.9942% (76%)0 .. 20,0001.96%00:57 (00:19)
261 BossConstructor Oct 24, 2016 $7.4940% (75%)0 .. 20,0000%00:00 (00:00)
262 Perimeter: Emperor's Testament Aug 29, 2006 $3.99N/A (N/A/72%)20,000 .. 50,0000%00:00 (00:00)
263 Zoo Empire Aug 1, 2004 $6.99N/A (N/A/59%)0 .. 20,0000%00:00 (00:00)
264 Albino Lullaby: Episode 1 Sep 15, 2015 $9.9940% (75%)20,000 .. 50,0000%00:00 (00:00)
265 Smell Of Death Jul 4, 2016 $9.9940% (75%)0 .. 20,0000%00:00 (00:00)
266 Victory At Sea Aug 8, 2014 $24.9940% (75%)20,000 .. 50,0000%00:00 (00:00)
267 GEARGUNS Tank offensive Sep 20, 2016 $7.9940% (75%)20,000 .. 50,0001.32%00:01 (00:00)
268 CivCity: Rome Jul 24, 2006 $9.9940% (75%/67%)50,000 .. 100,0000%00:00 (00:00)
269 Onechanbara Z2: Chaos Jun 2, 2016 $39.9940% (75%)0 .. 20,0000%00:00 (00:00)
270 Corgi Warlock Dec 3, 2015 $0.4940% (75%)20,000 .. 50,0000%00:00 (00:00)
271 Spirits of Xanadu Mar 26, 2015 $0.9940% (75%)20,000 .. 50,0001.85%01:29 (00:29)
272 FIVE: Champions of Canaan Sep 27, 2016 $3.9940% (75%)0 .. 20,0000%00:00 (00:00)
273 Pick a Hero Jun 9, 2016 $0.99N/A (N/A)0 .. 20,0000%00:00 (00:00)
274 Platformines Mar 28, 2014 $9.9940% (75%/67%)100,000 .. 200,0000%00:00 (00:00)
275 The Superfluous May 19, 2017 $4.99N/A (N/A)0 .. 20,0000%00:00 (00:00)
276 Civil War II Sep 17, 2013 $39.9940% (75%)0 .. 20,0000%00:00 (00:00)
277 Bubsy Two-Fur Jan 1, 1993 $1.9939% (74%)0 .. 20,0002.78%01:18 (00:26)
278 Supreme Ruler Ultimate Oct 17, 2014 $19.9939% (74%)20,000 .. 50,0000%00:00 (00:00)
279 FEIST Jul 23, 2015 $9.9939% (74%)20,000 .. 50,0000%00:00 (00:00)
280 Making History: The Great War Jan 29, 2015 $29.9939% (74%)0 .. 20,0000%00:00 (00:00)
281 Othello Aug 5, 2016 $9.9939% (74%)0 .. 20,0000%00:00 (00:00)
282 Banzai Escape Mar 16, 2016 $5.9939% (74%)0 .. 20,0000%00:00 (00:00)
283 Viktor Jun 13, 2014 $7.9939% (74%)20,000 .. 50,0000%00:00 (00:00)
284 Auro: A Monster-Bumping Adventure Apr 13, 2016 $6.9939% (74%)0 .. 20,0000%00:00 (00:00)
285 TableTop Soccer Apr 22, 2016 $0.9939% (74%)0 .. 20,0000%00:00 (00:00)
286 Divinity: Dragon Commander Aug 6, 2013 $39.9939% (74%)200,000 .. 500,0000%00:00 (00:00)
287 Phoning Home Feb 7, 2017 $19.9939% (74%/61%)20,000 .. 50,0002.22%00:01 (00:00)
288 Hunting Unlimited 2008 Sep 1, 2007 $3.99N/A (N/A)20,000 .. 50,0000%00:00 (00:00)
289 Sid Meier’s Ace Patrol Aug 27, 2013 $4.9939% (74%)500,000 .. 1,000,0000%00:00 (00:00)
290 Vampire of the Sands Jul 17, 2015 $4.9939% (74%)20,000 .. 50,0000%00:00 (00:00)
291 Distant Worlds: Universe May 23, 2014 $59.9939% (74%/81%)50,000 .. 100,0000%00:00 (00:00)
292 Hot Tin Roof: The Cat That Wore A Fedora Feb 20, 2015 $14.9939% (74%/66%)100,000 .. 200,0000.96%00:35 (00:11)
293 Ubersoldier II Jul 22, 2008 $9.9939% (74%/62%)100,000 .. 200,0000%00:00 (00:00)
294 Cast of the Seven Godsends - Redux Jul 20, 2015 $9.9937% (73%)20,000 .. 50,0001.32%03:21 (01:07)
295 Retrovirus Jan 31, 2013 $9.9937% (73%/70%)20,000 .. 50,0000%00:00 (00:00)
296 LEGO Indiana Jones 2: The Adventure Continues Feb 18, 2010 $19.9937% (73%/66%)20,000 .. 50,0000%00:00 (00:00)
297 The Aquatic Adventure of the Last Human Jan 19, 2016 $9.9937% (73%/76%)0 .. 20,0000%00:00 (00:00)
298 VRZ: Torment Jun 9, 2016 $9.9937% (73%)0 .. 20,0000%00:00 (00:00)
299 Battle Fleet 2 Nov 20, 2014 $14.9937% (73%)20,000 .. 50,0000%00:00 (00:00)
300 Rex Rocket Aug 5, 2014 $4.9937% (73%)20,000 .. 50,0000%00:00 (00:00)
301 Death by Game Show Jan 22, 2016 $9.9937% (73%)20,000 .. 50,0000%00:00 (00:00)
302 Civil War: Battle of Petersburg Feb 8, 2017 $0.9935% (72%)0 .. 20,0001.15%00:16 (00:05)
303 Rise & Shine Jan 13, 2017 $14.9935% (72%)20,000 .. 50,0000%00:00 (00:00)
304 Warp Mar 21, 2012 $9.9935% (72%)20,000 .. 50,0000%00:00 (00:00)
305 The Last Federation Apr 18, 2014 $19.9935% (72%/72%)50,000 .. 100,0000%00:00 (00:00)
306 Heaven Forest NIGHTS Mar 14, 2017 $0.9935% (72%)100,000 .. 200,0000.28%00:04 (00:01)
307 Pike and Shot : Campaigns Aug 13, 2015 $39.9935% (72%)0 .. 20,00066.67%01:40 (01:06)
308 Gold Rush! Anniversary Nov 7, 2014 $5.9935% (72%)100,000 .. 200,0001.32%01:43 (01:02)
309 King Arthur - The Role-playing Wargame Nov 24, 2009 $9.9935% (72%)200,000 .. 500,0000%00:00 (00:00)
310 Wyv and Keep: The Temple of the Lost Idol Aug 8, 2014 $14.9935% (72%)20,000 .. 50,0000%00:00 (00:00)
311 There Came an Echo Feb 24, 2015 $14.9935% (72%/58%)20,000 .. 50,0000%00:00 (00:00)
312 Cuban Missile Crisis May 6, 2005 $4.9935% (72%)20,000 .. 50,0000%00:00 (00:00)
313 rooMaze Mar 3, 2017 $1.9935% (72%)100,000 .. 200,0000%00:00 (00:00)
314 Airship Dragoon Aug 26, 2014 $19.99N/A (N/A)0 .. 20,0000%00:00 (00:00)
315 Smithy Jun 3, 2016 $3.99N/A (N/A)50,000 .. 100,0000%00:00 (00:00)
316 Cross of the Dutchman Sep 10, 2015 $8.9935% (72%/59%)20,000 .. 50,0000%00:00 (00:00)
317 Pongo May 14, 2015 $0.9935% (72%)50,000 .. 100,0000%00:00 (00:00)
318 Deadnaut Nov 27, 2014 $9.9935% (72%)0 .. 20,0000%00:00 (00:00)
319 Panzer Tactics HD May 22, 2014 $9.9935% (72%/69%)20,000 .. 50,0000%00:00 (00:00)
320 Fatal Fight Jun 10, 2016 $2.9935% (72%)0 .. 20,0000%00:00 (00:00)
321 Lux Delux May 1, 2015 $9.9934% (71%)20,000 .. 50,0000%00:00 (00:00)
322 Lost Planet: Extreme Condition Jun 26, 2007 $14.9934% (71%/66%)200,000 .. 500,0000.95%00:47 (00:15)
323 REDCON Apr 22, 2016 $5.9934% (71%)0 .. 20,0000%00:00 (00:00)
324 Space Colony: Steam Edition Apr 30, 2015 $14.9934% (71%/74%)20,000 .. 50,0000%00:00 (00:00)
325 Sengoku Jidai: Shadow of the Shogun May 19, 2016 $29.9934% (71%/80%)0 .. 20,0000%00:00 (00:00)
326 Tom Clancy's EndWar Feb 25, 2009 $9.9934% (71%/68%)50,000 .. 100,0000%00:00 (00:00)
327 Elliot Quest Nov 10, 2014 $9.9934% (71%)20,000 .. 50,0000%00:00 (00:00)
328 A.R.E.S.: Extinction Agenda Jan 20, 2011 $4.9934% (71%/68%)100,000 .. 200,0000%00:00 (00:00)
329 Disney Planes Aug 6, 2013 $19.99N/A (N/A)0 .. 20,0000%00:00 (00:00)
330 Revolution Under Siege Gold Jul 2, 2015 $24.9934% (71%)0 .. 20,0009.09%01:15 (00:25)
331 Zombie Camp Jul 31, 2016 $1.99N/A (N/A)0 .. 20,0000%00:00 (00:00)
332 Jagged Alliance 2 - Wildfire Mar 8, 2004 $6.9932% (70%)500,000 .. 1,000,0000.61%07:11 (04:51)
333 Zombie City Defense 2 Aug 19, 2016 $9.9932% (70%)0 .. 20,00010%01:00 (00:20)
334 BitMaster Oct 12, 2016 $2.9932% (70%)100,000 .. 200,0000%00:00 (00:00)
335 Elven Legacy Apr 7, 2009 $4.9932% (70%/71%)50,000 .. 100,0000%00:00 (00:00)
336 Incandescent Jun 30, 2015 $0.9932% (70%)20,000 .. 50,0000%00:00 (00:00)
337 Quick Slick Deadly Sep 21, 2015 $1.9930% (69%)20,000 .. 50,0000%00:00 (00:00)
338 Alea Jacta Est Sep 27, 2012 $24.9930% (69%)20,000 .. 50,00011.11%00:08 (00:02)
339 Brigade E5: New Jagged Union Oct 17, 2006 $3.9930% (69%/41%)0 .. 20,0000%00:00 (00:00)
340 FIVE: Guardians of David Nov 24, 2015 $9.9930% (69%/66%)20,000 .. 50,0000%00:00 (00:00)
341 Strategy & Tactics: Wargame Collection Apr 22, 2016 $9.9930% (69%)20,000 .. 50,0001.89%04:48 (03:11)
342 Space Food Truck Mar 25, 2016 $9.9930% (69%)0 .. 20,0000%00:00 (00:00)
343 YAIBA: NINJA GAIDEN Z Mar 21, 2014 $29.9930% (69%/49%)20,000 .. 50,0000%00:00 (00:00)
344 Spud's Quest Jul 31, 2014 $7.99N/A (N/A)0 .. 20,0000%00:00 (00:00)
345 Sol 0: Mars Colonization Jan 15, 2016 $3.9930% (69%)20,000 .. 50,0000%00:00 (00:00)
346 Collapse Sep 25, 2008 $1.9930% (69%)50,000 .. 100,0000%00:00 (00:00)
347 Guns n Zombies Oct 30, 2014 $0.7930% (69%)100,000 .. 200,0000%00:00 (00:00)
348 The Nightmare Cooperative Jul 16, 2014 $4.9930% (69%)50,000 .. 100,0000%00:00 (00:00)
349 1775: Rebellion Sep 29, 2016 $24.99N/A (N/A)0 .. 20,00010.53%02:50 (01:53)
350 Warrior Kings Apr 13, 2002 $9.9930% (69%/73%)20,000 .. 50,0000%00:00 (00:00)
351 RISK: Factions Mar 8, 2011 $9.9930% (69%/77%)50,000 .. 100,0000%00:00 (00:00)
352 UnSummoning: the Spectral Horde Dec 21, 2015 $3.99N/A (N/A)0 .. 20,0000%00:00 (00:00)
353 Pigmentone Jul 8, 2016 $0.49N/A (N/A)0 .. 20,00015%01:22 (00:52)
354 ManaCollect Apr 17, 2015 $6.9929% (68%)0 .. 20,0000%00:00 (00:00)
355 Theatre of War 2: Africa 1943 Apr 24, 2009 $4.9929% (68%/63%)100,000 .. 200,0000%00:00 (00:00)
356 Fair Strike Feb 5, 2004 $3.99N/A (N/A/56%)0 .. 20,0000%00:00 (00:00)
357 Toy Odyssey: The Lost and Found Sep 20, 2016 $14.9929% (68%/66%)50,000 .. 100,0000%00:00 (00:00)
358 Crazy Forest Jul 6, 2016 $4.9929% (68%)100,000 .. 200,0000.57%02:52 (00:57)
359 Stonerid Dec 18, 2013 $4.9929% (68%)50,000 .. 100,0000%00:00 (00:00)
360 Toren May 11, 2015 $9.9929% (68%/57%)50,000 .. 100,0000.96%03:32 (01:10)
361 Sengoku Sep 15, 2011 $9.9927% (67%/70%)100,000 .. 200,0000%00:00 (00:00)
362 Royal Defense Nov 6, 2014 $0.4927% (67%)50,000 .. 100,0000%00:00 (00:00)
363 Kill The Plumber Dec 31, 2015 $4.9927% (67%)0 .. 20,0000%00:00 (00:00)
364 Survivor Squad: Gauntlets Nov 16, 2015 $4.9927% (67%)20,000 .. 50,0000%00:00 (00:00)
365 Nomad Fleet Jul 14, 2015 $9.9927% (67%)0 .. 20,0006.67%00:30 (00:10)
366 Zafehouse: Diaries Sep 6, 2013 $1.9927% (67%)50,000 .. 100,0000%00:00 (00:00)
367 8-Bit Commando Jul 27, 2011 $2.9927% (67%)50,000 .. 100,0000%00:00 (00:00)
368 The Hive Aug 25, 2016 $9.9927% (67%)20,000 .. 50,0000%00:00 (00:00)
369 Scourge: Outbreak Apr 2, 2014 $7.9927% (67%)100,000 .. 200,0000%00:00 (00:00)
370 Chainsaw Warrior Oct 7, 2013 $4.9927% (67%)100,000 .. 200,0000%00:00 (00:00)
371 1849 May 8, 2014 $14.9926% (66%)20,000 .. 50,0000%00:00 (00:00)
372 Commander Cool 2 Dec 17, 2015 $2.9926% (66%)20,000 .. 50,0001.25%00:01 (00:00)
373 Mad Combat Marines Jul 13, 2016 $0.9926% (66%)20,000 .. 50,0000%00:00 (00:00)
374 7th Legion Jan 1, 1997 $6.9926% (66%)20,000 .. 50,0000%00:00 (00:00)
375 The Living Dungeon Nov 2, 2015 $12.9926% (66%)0 .. 20,0003.13%00:32 (00:10)
376 Men of War: Condemned Heroes Apr 12, 2012 $7.9926% (66%/57%)100,000 .. 200,0000%00:00 (00:00)
377 Sky To Fly: Faster Than Wind Mar 25, 2016 $3.9926% (66%)0 .. 20,0000%00:00 (00:00)
378 Bedlam Oct 13, 2015 $12.9926% (66%/54%)100,000 .. 200,0001.71%03:19 (02:54)
379 Assassin’s Creed Chronicles: India Jan 12, 2016 $9.9926% (66%)20,000 .. 50,0003.7%00:21 (00:07)
380 March of the Eagles Feb 18, 2013 $19.9925% (65%/71%)50,000 .. 100,0000%00:00 (00:00)
381 Ground Breakers Jun 15, 2016 $4.99N/A (N/A)0 .. 20,0000%00:00 (00:00)
382 Disney Pirates of the Caribbean: At Worlds End May 22, 2007 $19.9925% (65%)0 .. 20,0000%00:00 (00:00)
383 Hunters Of The Dead Sep 4, 2014 $4.9925% (65%)20,000 .. 50,0000%00:00 (00:00)
384 The Seven Years War (1756-1763) Oct 30, 2015 $19.9925% (65%)0 .. 20,0000%00:00 (00:00)
385 Malebolgia May 6, 2015 $12.9925% (65%)0 .. 20,0000%00:00 (00:00)
386 Platypus II Mar 17, 2007 $6.9925% (65%)200,000 .. 500,0001.13%03:31 (01:50)
387 Marauder Sep 10, 2009 $9.9925% (65%)50,000 .. 100,0000%00:00 (00:00)
388 Theatre of War 2: Kursk 1943 Mar 9, 2010 $4.9925% (65%)50,000 .. 100,0000%00:00 (00:00)
389 Zombie Tycoon 2: Brainhov's Revenge Dec 9, 2013 $4.9925% (65%)50,000 .. 100,0000%00:00 (00:00)
390 Devil's Dare 悪魔の挑戦 Oct 21, 2014 $12.9925% (65%)20,000 .. 50,0000%00:00 (00:00)
391 Spirit of War Mar 12, 2015 $9.9925% (65%)0 .. 20,0000%00:00 (00:00)
392 Infinity Runner Jul 14, 2014 $6.9925% (65%/56%)0 .. 20,0000%00:00 (00:00)
393 Frozen Synapse Prime Nov 14, 2014 $24.9925% (65%/83%)100,000 .. 200,0000%00:00 (00:00)
394 Warlock 2: The Exiled Apr 10, 2014 $19.9924% (64%/73%)50,000 .. 100,0000%00:00 (00:00)
395 Urban Pirate Jun 17, 2016 $6.99N/A (N/A)0 .. 20,0000%00:00 (00:00)
396 Rise: Battle Lines Nov 17, 2015 $1.9924% (64%)0 .. 20,0000%00:00 (00:00)
397 Revenge of Roger Rouge Apr 22, 2016 $0.99N/A (N/A)20,000 .. 50,0000.74%04:32 (01:30)
398 Battle Worlds: Kronos Nov 4, 2013 $19.9924% (64%/71%)20,000 .. 50,0000%00:00 (00:00)
399 A Game of Dwarves Oct 23, 2012 $9.9924% (64%/60%)50,000 .. 100,0000%00:00 (00:00)
400 SPACECOM Sep 17, 2014 $9.9924% (64%/68%)100,000 .. 200,0000%00:00 (00:00)
401 Double Dragon IV Jan 30, 2017 $6.9924% (64%/50%)0 .. 20,0000%00:00 (00:00)
402 Kaiju-A-GoGo Apr 23, 2015 $9.9924% (64%)20,000 .. 50,0000%00:00 (00:00)
403 Link Apr 22, 2016 $4.99N/A (N/A)0 .. 20,0000%00:00 (00:00)
404 Jagged Alliance: Crossfire Aug 24, 2012 $14.9924% (64%/63%)100,000 .. 200,0000%00:00 (00:00)
405 Zoo Rampage Jul 9, 2014 $3.9924% (64%)0 .. 20,0000%00:00 (00:00)
406 Beasts Battle Jun 15, 2016 $1.9922% (63%)0 .. 20,0000%00:00 (00:00)
407 War, the Game Jan 12, 2015 $6.9922% (63%/65%)20,000 .. 50,0000%00:00 (00:00)
408 Pixel Boy and the Ever Expanding Dungeon May 30, 2014 $0.9922% (63%)20,000 .. 50,0003.57%01:09 (00:46)
409 Will Fight for Food: Super Actual Sellout: Game of the Hour Apr 22, 2015 $5.9922% (63%)0 .. 20,0000%00:00 (00:00)
410 Desert Ashes Nov 10, 2014 $4.9922% (63%)20,000 .. 50,0000%00:00 (00:00)
411 Port Royale 2 Apr 30, 2004 $0.9922% (63%/75%)50,000 .. 100,0002.5%00:42 (00:14)
412 Bombshell Jan 29, 2016 $34.9921% (62%)0 .. 20,0000%00:00 (00:00)
413 Supreme Ruler: Cold War Jul 29, 2011 $9.9921% (62%/63%)20,000 .. 50,0000%00:00 (00:00)
414 Disney Epic Mickey 2: The Power of Two Nov 18, 2012 $19.9921% (62%)20,000 .. 50,0000%00:00 (00:00)
415 BattleLore: Command Nov 25, 2014 $6.9921% (62%)0 .. 20,0000%00:00 (00:00)
416 Freight Tycoon Inc. Aug 15, 2007 $4.9921% (62%)20,000 .. 50,0000%00:00 (00:00)
417 Flashback Oct 1, 2013 $9.9921% (62%)20,000 .. 50,0000%00:00 (00:00)
418 Sorcerer King: Rivals Sep 22, 2016 $14.9921% (62%)20,000 .. 50,0000.9%01:02 (00:20)
419 Hyperspace Pinball Sep 30, 2015 $2.99N/A (N/A)0 .. 20,0000%00:00 (00:00)
420 My Super Tower 2 Jan 27, 2017 $0.49N/A (N/A)0 .. 20,0000%00:00 (00:00)
421 Spice Road Apr 24, 2014 $19.9921% (62%)0 .. 20,0000%00:00 (00:00)
422 Battleplan: American Civil War Jul 4, 2014 $9.9921% (62%/66%)100,000 .. 200,0000.54%03:47 (01:21)
423 The Few Jun 18, 2014 $7.9921% (62%)20,000 .. 50,0000%00:00 (00:00)
424 Goblin Defenders: Steel‘n’ Wood Aug 21, 2013 $2.9921% (62%)20,000 .. 50,0000%00:00 (00:00)
425 4089: Ghost Within Jan 9, 2015 $5.9921% (62%)0 .. 20,0000%00:00 (00:00)
426 Purgatory Jun 22, 2016 $0.9920% (61%)200,000 .. 500,0000.26%01:57 (01:45)
427 Quarantine May 24, 2017 $9.9920% (61%)0 .. 20,0000%00:00 (00:00)
428 Legions of Steel Jul 16, 2015 $19.99N/A (N/A/64%)0 .. 20,0000%00:00 (00:00)
429 Men of War: Vietnam Sep 8, 2011 $7.9920% (61%/68%)100,000 .. 200,0000.98%02:33 (00:51)
430 E.T. Armies Mar 3, 2016 $14.9920% (61%/54%)0 .. 20,0000%00:00 (00:00)
431 To End All Wars Aug 29, 2014 $39.9920% (61%/71%)0 .. 20,0000%00:00 (00:00)
432 Overruled! Sep 15, 2015 $12.9919% (60%)20,000 .. 50,0000%00:00 (00:00)
433 Woolfe - The Red Hood Diaries Mar 17, 2015 $9.9919% (60%/55%)50,000 .. 100,0000%00:00 (00:00)
434 Skyshine's BEDLAM Sep 16, 2015 $19.9919% (60%/67%)20,000 .. 50,0000%00:00 (00:00)
435 Hybrid Wars Sep 29, 2016 $17.9919% (60%/54%)0 .. 20,0000%00:00 (00:00)
436 Code of Princess Apr 14, 2016 $14.9919% (60%/53%)0 .. 20,0000%00:00 (00:00)
437 Close Combat - Panthers in the Fog Nov 19, 2012 $39.9919% (60%)0 .. 20,0000%00:00 (00:00)
438 Patrician IV - Steam Special Edition Sep 17, 2010 $14.9919% (60%/66%)100,000 .. 200,0000.84%13:16 (04:25)
439 Grim Seventh Jan 20, 2017 FreeN/A (N/A)0 .. 20,0007.69%15:36 (05:12)
440 Disciples III - Renaissance Steam Special Edition Jul 16, 2010 $14.9919% (60%/56%)100,000 .. 200,0000%00:00 (00:00)
441 Stay Dead Evolution Feb 4, 2015 $5.9919% (60%)20,000 .. 50,0001.69%04:34 (01:31)
442 Life in Bunker Feb 25, 2016 $15.9919% (60%)0 .. 20,00010%00:42 (00:14)
443 Merchants of Kaidan Nov 10, 2014 $14.9919% (60%)100,000 .. 200,0000.39%02:29 (00:49)
444 7 Grand Steps: What Ancients Begat Jun 7, 2013 $19.9919% (60%)100,000 .. 200,0000%00:00 (00:00)
445 Call of Duty: Black Ops - Mac Edition Sep 27, 2012 $19.9919% (60%)50,000 .. 100,0000%00:00 (00:00)
446 DreamBreak Jul 21, 2016 $6.9919% (60%/46%)0 .. 20,0000%00:00 (00:00)
447 Super Helmets on Fire DX Ultra Edition Plus Alpha Feb 15, 2016 $0.99N/A (N/A)0 .. 20,0000%00:00 (00:00)
448 Cemetery Warrior 3 Feb 3, 2017 $0.4918% (59%)50,000 .. 100,0000.43%05:06 (01:42)
449 VR Journey Dec 15, 2016 $2.9918% (59%)20,000 .. 50,0000.77%00:24 (00:08)
450 Antisquad Oct 31, 2014 $5.9918% (59%)50,000 .. 100,0006.33%08:56 (09:20)
451 Armada 2526 Gold Edition Feb 28, 2013 $19.9918% (59%/66%)20,000 .. 50,0000%00:00 (00:00)
452 Ninjahtic Mind Tricks Jul 16, 2015 $1.99N/A (N/A)0 .. 20,0000%00:00 (00:00)
453 Prospekt Feb 18, 2016 $9.9918% (59%)20,000 .. 50,0000%00:00 (00:00)
454 Wanderlust Adventures Aug 10, 2015 $9.9917% (58%)20,000 .. 50,0000%00:00 (00:00)
455 Ceres Oct 16, 2015 $19.9917% (58%/74%)0 .. 20,0000%00:00 (00:00)
456 Check vs Mate Aug 16, 2012 $2.9917% (58%/69%)0 .. 20,0000%00:00 (00:00)
457 Colonial Conquest Jul 28, 2015 $9.9917% (58%)0 .. 20,0006.25%00:01 (00:00)
458 Adventure World Aug 2, 2016 $4.99N/A (N/A)0 .. 20,0000%00:00 (00:00)
459 Sir! I'd Like To Report A Bug! Oct 19, 2015 $1.99N/A (N/A)0 .. 20,0000%00:00 (00:00)
460 Heavy Fire: Afghanistan Aug 15, 2014 $2.9917% (58%)20,000 .. 50,0000%00:00 (00:00)
461 Prophour23 Oct 22, 2014 $9.9917% (58%)0 .. 20,0000%00:00 (00:00)
462 Woodle Tree 2: Worlds Sep 16, 2016 $3.9916% (57%)50,000 .. 100,0000%00:00 (00:00)
463 Gates of Horizon Dec 18, 2014 $9.9916% (57%)0 .. 20,0000%00:00 (00:00)
464 Unearthed: Trail of Ibn Battuta - Episode 1 - Gold Edition Jan 3, 2014 $4.9916% (57%)20,000 .. 50,0000%00:00 (00:00)
465 Defend Your Crypt Jul 21, 2016 $2.99N/A (N/A)0 .. 20,0000%00:00 (00:00)
466 Rise of Venice Sep 27, 2013 $19.9916% (57%/66%)50,000 .. 100,0000%00:00 (00:00)
467 Delve Deeper Sep 24, 2010 $4.9915% (56%)50,000 .. 100,0000%00:00 (00:00)
468 Defence to death May 11, 2017 $0.67N/A (N/A)50,000 .. 100,0000%00:00 (00:00)
469 Abalone Apr 23, 2014 $4.9915% (56%)0 .. 20,0000%00:00 (00:00)
470 reconquest Dec 16, 2016 $11.9915% (56%)0 .. 20,0000%00:00 (00:00)
471 Gnumz: Masters of Defense Dec 21, 2015 $0.4915% (56%)20,000 .. 50,0000.45%10:25 (03:28)
472 Horizon Feb 6, 2014 $29.9915% (56%)50,000 .. 100,0000%00:00 (00:00)
473 Sovereignty: Crown of Kings Feb 2, 2017 $24.9915% (55%)0 .. 20,0000%00:00 (00:00)
474 BC Kings Sep 15, 2008 $4.9915% (55%)20,000 .. 50,0000%00:00 (00:00)
475 Pain Train Jan 11, 2017 $0.9915% (55%)20,000 .. 50,0000%00:00 (00:00)
476 Wickland Nov 14, 2014 $0.9914% (54%)50,000 .. 100,0000.64%06:28 (02:09)
477 Tic-Toc-Tower Sep 28, 2015 $2.9914% (54%)0 .. 20,0000%00:00 (00:00)
478 Nightside Apr 2, 2015 $9.9913% (53%)20,000 .. 50,0000%00:00 (00:00)
479 Smugglers 5 Apr 11, 2014 $9.9913% (53%)20,000 .. 50,0001.79%01:02 (00:20)
480 Urja Jan 9, 2015 $9.9913% (53%)20,000 .. 50,0000%00:00 (00:00)
481 The Stalin Subway Oct 5, 2006 $0.5113% (53%)20,000 .. 50,0000%00:00 (00:00)
482 Story Of the Survivor Feb 17, 2016 $4.99N/A (N/A)20,000 .. 50,0000%00:00 (00:00)
483 RESCUE 2: Everyday Heroes Jun 3, 2015 $19.9913% (53%)20,000 .. 50,0000%00:00 (00:00)
484 Armada 2526 Jun 10, 2010 $14.99N/A (N/A/66%)0 .. 20,0000%00:00 (00:00)
485 Aegis Oct 6, 2016 $2.99N/A (N/A)0 .. 20,0000%00:00 (00:00)
486 Royal Bounty HD Aug 10, 2015 $2.9912% (52%)0 .. 20,0000%00:00 (00:00)
487 Meridian: New World Apr 4, 2014 $6.9912% (52%/43%)50,000 .. 100,0000.88%00:01 (00:00)
488 Scapeland Mar 31, 2016 $3.9912% (52%)0 .. 20,0000%00:00 (00:00)
489 The Campaign Series: Fall Weiss May 30, 2014 $2.2412% (52%)20,000 .. 50,0000%00:00 (00:00)
490 Crusaders: Thy Kingdom Come Oct 8, 2009 $9.99N/A (N/A)20,000 .. 50,0000%00:00 (00:00)
491 Biodrone Battle Jul 16, 2015 $1.9912% (51%)100,000 .. 200,0000%00:00 (00:00)
492 Guncraft Aug 9, 2013 $14.9912% (51%/73%)100,000 .. 200,0000%00:00 (00:00)
493 PeriAreion Feb 19, 2015 $5.99N/A (N/A)0 .. 20,0000%00:00 (00:00)
494 Dusty Revenge:Co-Op Edition Feb 17, 2014 $14.9912% (51%)50,000 .. 100,0000%00:00 (00:00)
495 MinosMaze - The Minotaur's Labyrinth May 1, 2017 $4.99N/A (N/A)0 .. 20,0000%00:00 (00:00)
496 Castle Werewolf 3D Feb 7, 2017 $2.9911% (50%)50,000 .. 100,0007.23%04:11 (04:32)
497 Odd||Even Apr 6, 2016 $0.9911% (50%)20,000 .. 50,0000%00:00 (00:00)
498 Weather Lord: The Successor's Path Apr 8, 2015 $4.99N/A (N/A)0 .. 20,0000%00:00 (00:00)
499 MDK2 HD Jul 30, 2012 $14.9911% (50%/73%)0 .. 20,0000%00:00 (00:00)
500 Albedo: Eyes from Outer Space Apr 10, 2015 $14.9911% (50%/66%)50,000 .. 100,0000%00:00 (00:00)
501 No Pineapple Left Behind Feb 18, 2016 $9.99N/A (N/A/59%)0 .. 20,0000%00:00 (00:00)
502 Marvel: Ultimate Alliance 2 Jul 26, 2016 $39.9911% (50%)0 .. 20,0005.56%05:16 (01:45)
503 Z Steel Soldiers Aug 1, 2014 $12.9910% (49%)50,000 .. 100,0003.18%08:57 (13:15)
504 Kidnapped Aug 4, 2015 $2.9910% (49%)100,000 .. 200,0000%00:00 (00:00)
505 Rubber and Lead Sep 4, 2015 $4.9910% (48%)20,000 .. 50,0000%00:00 (00:00)
506 Star Traders: 4X Empires Nov 18, 2014 $9.9910% (48%)0 .. 20,0000%00:00 (00:00)
507 Synonymy Dec 12, 2014 $1.9910% (48%)0 .. 20,0000%00:00 (00:00)
508 Meridian: Squad 22 Aug 11, 2016 $14.9910% (48%)0 .. 20,0000%00:00 (00:00)
509 Aggression: Europe Under Fire May 10, 2007 $9.9910% (48%)50,000 .. 100,0000%00:00 (00:00)
510 Hell Nov 13, 2014 $29.99N/A (N/A)0 .. 20,0000%00:00 (00:00)
511 Blasting Agent: Ultimate Edition Aug 17, 2016 $2.99N/A (N/A)0 .. 20,0000%00:00 (00:00)
512 HitBox Jan 30, 2017 Free9% (47%)0 .. 20,0000%00:00 (00:00)
513 Island Defense Jul 23, 2015 $1.999% (47%)50,000 .. 100,0000%00:00 (00:00)
514 Crossfire: Dungeons Jan 15, 2007 $3.999% (47%)0 .. 20,0000%00:00 (00:00)
515 Hero Generations Apr 10, 2015 $5.999% (47%)0 .. 20,0000%00:00 (00:00)
516 Disposable Heroes Oct 1, 2015 $4.999% (47%)0 .. 20,0000%00:00 (00:00)
517 Commander: Conquest of the Americas Jul 30, 2010 $9.999% (46%/68%)50,000 .. 100,0000%00:00 (00:00)
518 The Stalin Subway: Red Veil Oct 5, 2006 $0.59% (46%)50,000 .. 100,0003.57%04:02 (01:20)
519 Redemption: Saints And Sinners Nov 18, 2016 $0.999% (46%)50,000 .. 100,0000%00:00 (00:00)
520 Magic Quest May 6, 2016 $1.99N/A (N/A)50,000 .. 100,0000%00:00 (00:00)
521 Megamagic: Wizards of the Neon Age Apr 20, 2016 $9.99N/A (N/A/67%)0 .. 20,0001.47%00:01 (00:00)
522 Chronostorm: Siberian Border Apr 2, 2009 $0.99N/A (N/A)0 .. 20,0000%00:00 (00:00)
523 Carrier Command: Gaea Mission Sep 28, 2012 $32.998% (45%/60%)200,000 .. 500,0000%00:00 (00:00)
524 World War 2: Time of Wrath Jun 15, 2009 $4.998% (45%)20,000 .. 50,0000%00:00 (00:00)
525 The Bluecoats: North vs South May 10, 2012 $4.998% (45%)50,000 .. 100,0000%00:00 (00:00)
526 Nux Dec 26, 2006 $6.998% (44%)100,000 .. 200,0000.85%03:42 (04:49)
527 Impire Feb 14, 2013 $19.998% (44%/45%)100,000 .. 200,0000%00:00 (00:00)
528 Vendetta - Curse of Raven's Cry Nov 20, 2015 $8.998% (44%)0 .. 20,0000%00:00 (00:00)
529 DUNGEONS - Steam Special Edition Feb 10, 2011 $9.997% (43%/65%)200,000 .. 500,0000%00:00 (00:00)
530 Skyward Collapse May 23, 2013 $4.997% (43%/64%)100,000 .. 200,0000%00:00 (00:00)
531 Pride of Nations Jun 8, 2011 $19.997% (43%/70%)20,000 .. 50,0000%00:00 (00:00)
532 Samudai Feb 9, 2015 $2.997% (42%)20,000 .. 50,0000%00:00 (00:00)
533 Heavy Fire: Shattered Spear Oct 23, 2015 $3.99N/A (N/A)0 .. 20,0000%00:00 (00:00)
534 Burstfire Sep 24, 2015 N/A7% (42%)50,000 .. 100,0000%00:00 (00:00)
535 The Entente Gold Aug 11, 2003 $1.997% (42%)50,000 .. 100,0000%00:00 (00:00)
536 Sword of the Stars II: Enhanced Edition Nov 30, 2012 $19.997% (42%/65%)100,000 .. 200,0000%00:00 (00:00)
537 Rulers of Nations Jul 16, 2014 $19.997% (41%/63%)0 .. 20,0000%00:00 (00:00)
538 Lost in Paradise Aug 20, 2015 $2.997% (41%)20,000 .. 50,0000%00:00 (00:00)
539 Hydraulic Empire Jul 31, 2015 $7.997% (41%)0 .. 20,0000%00:00 (00:00)
540 Control Craft 2 Feb 15, 2016 $0.57% (41%)0 .. 20,0002.44%01:18 (00:26)
541 Infection: Humanity's Last Gasp May 26, 2016 $9.99N/A (N/A)0 .. 20,0000%00:00 (00:00)
542 Dead But Alive! Southern England Oct 2, 2015 $14.996% (40%)0 .. 20,0000%00:00 (00:00)
543 R.I.P.D.: The Game Jul 16, 2013 $9.996% (40%)20,000 .. 50,0000%00:00 (00:00)
544 Wave of Darkness Nov 5, 2015 $29.996% (40%)0 .. 20,0000%00:00 (00:00)
545 The Kings' Crusade Oct 8, 2010 $9.996% (40%/71%)50,000 .. 100,0000%00:00 (00:00)
546 Devils & Demons Oct 6, 2015 $9.996% (40%)20,000 .. 50,0000%00:00 (00:00)
547 Dungeons - The Dark Lord Sep 27, 2011 $19.996% (39%/72%)100,000 .. 200,0000%00:00 (00:00)
548 Zombie Apocalypse: Escape The Undead City Nov 25, 2013 $0.996% (39%)0 .. 20,0000%00:00 (00:00)
549 Pain Train 2 Mar 16, 2017 $6.996% (39%)0 .. 20,0000%00:00 (00:00)
550 Dark Matter Oct 17, 2013 $9.996% (39%)0 .. 20,0000%00:00 (00:00)
551 Mechs & Mercs: Black Talons Jan 9, 2015 $9.995% (38%)0 .. 20,0000%00:00 (00:00)
552 Risk Jun 10, 2013 $9.995% (38%)20,000 .. 50,0000%00:00 (00:00)
553 Strategic War in Europe Mar 21, 2014 $14.995% (38%)20,000 .. 50,0000%00:00 (00:00)
554 Gratuitous Space Battles 2 Apr 16, 2015 $9.995% (38%)20,000 .. 50,0000%00:00 (00:00)
555 Stellar Impact Apr 12, 2012 $9.995% (37%/74%)50,000 .. 100,0001.18%05:14 (01:44)
556 Tiamat X May 29, 2015 $1.995% (37%)50,000 .. 100,0000%00:00 (00:00)
557 Kick-Ass 2 Aug 15, 2014 $19.995% (36%)0 .. 20,0000%00:00 (00:00)
558 Blue Sheep Mar 31, 2016 $1.99N/A (N/A)0 .. 20,0000%00:00 (00:00)
559 Knight Adventure Oct 15, 2015 $0.99N/A (N/A)50,000 .. 100,0000%00:00 (00:00)
560 Fallen: A2P Protocol Aug 14, 2015 $9.995% (35%)20,000 .. 50,0000%00:00 (00:00)
561 Urban Empire Jan 20, 2017 $29.995% (35%/62%)50,000 .. 100,0000%00:00 (00:00)
562 CTU: Counter Terrorism Unit Apr 22, 2016 $14.994% (34%)0 .. 20,0000%00:00 (00:00)
563 Into the Void Dec 4, 2015 $4.994% (34%)20,000 .. 50,0000%00:00 (00:00)
564 Arma Tactics Oct 1, 2013 $8.994% (34%/47%)200,000 .. 500,0000%00:00 (00:00)
565 Shadows of War Sep 19, 2014 $2.994% (34%)20,000 .. 50,0000%00:00 (00:00)
566 Ranger of the jungle Jul 18, 2016 $3.99N/A (N/A)0 .. 20,0000%00:00 (00:00)
567 Sim Junta Aug 18, 2015 $1.994% (33%)0 .. 20,0000%00:00 (00:00)
568 Jagged Alliance Flashback Oct 21, 2014 $19.994% (33%)20,000 .. 50,0000%00:00 (00:00)
569 Disciples III - Resurrection Oct 11, 2011 $14.994% (32%/63%)100,000 .. 200,0000%00:00 (00:00)
570 Zombie Zoeds May 20, 2015 $4.993% (31%)200,000 .. 500,0000%00:00 (00:00)
571 Evopollution Apr 23, 2014 $4.993% (31%)0 .. 20,0000%00:00 (00:00)
572 Ground Pounders Jul 15, 2014 $4.99N/A (N/A)0 .. 20,0000%00:00 (00:00)
573 - Arcane RERaise - Apr 4, 2017 $2.993% (31%)200,000 .. 500,00030.9%04:06 (04:16)
574 Ku: Shroud of the Morrigan Mar 17, 2014 $4.993% (31%)20,000 .. 50,0000%00:00 (00:00)
575 Psichodelya Aug 8, 2014 $1.993% (31%)100,000 .. 200,0000.91%04:53 (03:15)
576 Robotex Nov 18, 2014 $4.993% (30%)100,000 .. 200,0000%00:00 (00:00)
577 A Game of Thrones - Genesis Sep 29, 2011 $9.993% (30%)100,000 .. 200,0000%00:00 (00:00)
578 Tank Operations: European Campaign Nov 22, 2013 $14.993% (30%)20,000 .. 50,0000%00:00 (00:00)
579 Power of Defense Aug 4, 2010 $9.99N/A (N/A)0 .. 20,0000%00:00 (00:00)
580 Defenders of Time Nov 4, 2014 N/AN/A (N/A/55%)0 .. 20,0000%00:00 (00:00)
581 Solar Shifter EX Sep 11, 2015 $4.993% (28%)0 .. 20,0000%00:00 (00:00)
582 Hard Truck Apocalypse: Arcade / Ex Machina: Arcade May 24, 2007 $4.993% (26%)20,000 .. 50,0000%00:00 (00:00)
583 Gridberd Sep 7, 2015 $6.993% (26%)200,000 .. 500,0000%00:00 (00:00)
584 Zombies on a Plane Mar 25, 2016 $4.992% (25%)0 .. 20,0000%00:00 (00:00)
585 One Star Apr 17, 2017 $0.5N/A (N/A)50,000 .. 100,0000.53%04:33 (01:31)
586 APOX Jan 20, 2011 $14.992% (23%/48%)20,000 .. 50,0000%00:00 (00:00)
587 The Asskickers-Steam Edition Feb 6, 2015 $9.992% (22%)0 .. 20,0000%00:00 (00:00)
588 Elite vs. Freedom May 31, 2016 $4.992% (22%)0 .. 20,0000%00:00 (00:00)
589 Lords of the Black Sun Sep 12, 2014 $29.992% (21%)0 .. 20,0000%00:00 (00:00)
590 Human Extinction Simulator Jan 21, 2015 $19.99N/A (N/A)0 .. 20,0000%00:00 (00:00)
591 Gemini Wars Nov 2, 2012 $14.992% (18%/53%)20,000 .. 50,0000%00:00 (00:00)
592 Tryst Sep 14, 2012 $14.99N/A (N/A/50%)0 .. 20,0000%00:00 (00:00)
593 Star Project Aug 4, 2016 $0.491% (16%)100,000 .. 200,0005.7%04:19 (04:25)
594 Prison Tycoon 3: Lockdown Aug 1, 2007 $9.991% (15%)20,000 .. 50,0000%00:00 (00:00)
595 Once Bitten, Twice Dead! Jul 17, 2015 $4.991% (13%)20,000 .. 50,0000%00:00 (00:00)
596 Citadels Jul 25, 2013 $14.991% (12%/20%)20,000 .. 50,0000%00:00 (00:00)
597 Bloodbath Jun 16, 2014 $14.99N/A (N/A)0 .. 20,0000%00:00 (00:00)
598 Magnetic By Nature Nov 10, 2014 $9.99N/A (N/A)20,000 .. 50,0000%00:00 (00:00)

Owners of this game also own:

Access restricted.

This feature is only available to users with special access rights. Sorry.

If you want to proceed, you need to register or log in first and then back Steam Spy on Patreon. Look for Indie or Pro pledge.

Don't forget to use the same email as on Steam Spy!

Playtime distribution:

Access restricted.

This feature is only available to users with special access rights. Sorry.

If you want to proceed, you need to register or log in first and then back Steam Spy on Patreon. Look for Indie or Pro pledge.

Don't forget to use the same email as on Steam Spy!

Playtime (2 weeks):

Access restricted.

This feature is only available to users with special access rights. Sorry.

If you want to proceed, you need to register or log in first and then back Steam Spy on Patreon. Look for Indie or Pro pledge.

Don't forget to use the same email as on Steam Spy!

User reviews:

Login required.

Please register or log in to see this information.